DW8909 Weather Reports


time (UTC)temp
C
wind
direction
speed
KPH
gust
KPH
rain 1hr
cm
rain 24hr
cm
rain mn
cm
humidity
%
barometer
mb
20260510113005 13 5 11.3 32.2 0.00 0.00 0.00 73 1014.4
20260510111505 13 36 9.7 25.7 0.00 0.00 0.00 74 1014.4
20260510110001 13 30 11.3 35.4 0.00 0.00 0.00 74 1014.6
20260510104601 13 5 9.7 27.4 0.00 0.00 0.00 75 1014.7
20260510103059 13 26 12.9 25.7 0.00 0.00 0.00 75 1014.7
20260510101557 13 63 12.9 27.4 0.00 0.00 0.00 76 1014.8
20260510100115 13 32 11.3 25.7 0.00 0.00 0.00 76 1014.8
20260510094603 13 48 9.7 24.1 0.00 0.00 0.00 76 1015.1
20260510093100 13 33 8.0 20.9 0.00 0.00 0.00 76 1015.1
20260510091553 14 32 9.7 27.4 0.00 0.00 0.00 75 1015.4
20260510090058 14 46 8.0 20.9 0.00 0.00 0.00 75 1015.3
20260510084609 14 20 9.7 25.7 0.00 0.00 0.00 76 1015.4
20260510083050 14 80 8.0 19.3 0.00 0.00 0.00 76 1015.5
20260510081552 14 67 6.4 19.3 0.00 0.00 0.00 75 1015.5
20260510080042 13 53 9.7 24.1 0.00 0.00 0.00 71 1015.5
20260510074539 13 53 6.4 22.5 0.00 0.00 0.00 73 1015.5
20260510073036 13 31 8.0 24.1 0.00 0.00 0.00 75 1015.5
20260510071540 13 103 9.7 20.9 0.00 0.00 0.00 76 1015.6
20260510070039 13 40 6.4 25.7 0.00 0.00 0.00 72 1015.6
20260510064531 13 32 9.7 20.9 0.00 0.00 0.00 69 1015.5
20260510063026 12 67 8.0 20.9 0.00 0.00 0.00 67 1015.5
20260510061524 12 39 6.4 20.9 0.00 0.00 0.00 69 1015.4
20260510060024 12 65 6.4 20.9 0.00 0.00 0.00 70 1015.4
20260510054521 12 351 6.4 20.9 0.00 0.00 0.00 71 1015.5
20260510053022 12 59 8.0 19.3 0.00 0.00 0.00 73 1015.5
20260510051519 12 55 6.4 20.9 0.00 0.00 0.00 75 1015.5
20260510050014 12 59 9.7 22.5 0.00 0.00 0.00 75 1015.3
20260510044523 12 46 6.4 19.3 0.00 0.00 0.00 75 1015.2
20260510043010 11 41 6.4 24.1 0.00 0.00 0.00 77 1015.4
20260510041509 11 76 6.4 22.5 0.00 0.00 0.00 78 1015.6
20260510040010 11 44 6.4 20.9 0.00 0.00 0.00 80 1015.5
20260510034504 12 49 9.7 20.9 0.00 0.00 0.00 82 1015.4
20260510033139 12 360 6.4 25.7 0.00 0.00 0.00 82 1015.4
20260510031624 12 38 6.4 20.9 0.00 0.00 0.00 82 1015.4
20260510030104 12 62 8.0 22.5 0.00 0.00 0.00 82 1015.4
20260510024652 12 38 6.4 19.3 0.00 0.00 0.00 82 1015.5
20260510023032 12 103 4.8 17.7 0.00 0.00 0.00 82 1015.5
20260510021532 12 18 6.4 17.7 0.00 0.00 0.00 82 1015.5
20260510020027 12 32 4.8 16.1 0.00 0.00 0.00 82 1015.7
20260510014523 12 27 4.8 17.7 0.00 0.00 0.00 83 1015.7
20260510013022 12 43 6.4 24.1 0.00 0.00 0.00 83 1015.8
20260510011534 12 29 6.4 20.9 0.00 0.00 0.00 83 1015.8
20260510010019 12 22 4.8 19.3 0.00 0.00 0.00 83 1015.6
20260510004516 12 40 3.2 16.1 0.00 0.00 0.00 83 1015.8
20260510003015 12 59 4.8 19.3 0.00 0.00 0.00 83 1015.8
20260510001511 12 33 4.8 19.3 0.00 0.00 0.00 84 1016.1
20260510000014 12 74 6.4 17.7 0.00 0.00 0.00 84 1016.4
20260509234506 12 305 4.8 19.3 0.00 0.00 0.00 83 1016.4
20260509233004 12 41 4.8 17.7 0.00 0.00 0.00 83 1016.5
20260509231504 12 49 8.0 17.7 0.00 0.00 0.00 82 1016.4
20260509230002 12 21 4.8 17.7 0.00 0.00 0.00 81 1016.3
20260509224559 12 57 6.4 17.7 0.00 0.00 0.00 80 1016.3
20260509223105 12 58 4.8 14.5 0.00 0.00 0.00 80 1016.3
20260509221559 12 355 6.4 19.3 0.00 0.00 0.00 80 1016.4
20260509220056 12 43 8.0 17.7 0.00 0.00 0.00 80 1016.3
20260509214555 12 29 6.4 17.7 0.00 0.00 0.00 81 1016.3
20260509213055 12 34 4.8 20.9 0.00 0.00 0.00 82 1016.4
20260509211554 12 35 4.8 16.1 0.00 0.00 0.00 82 1016.4
20260509204555 12 58 6.4 16.1 0.00 0.00 0.00 82 1016.3
20260509203052 12 44 4.8 12.9 0.00 0.00 0.00 83 1016.2
20260509201551 12 16 4.8 19.3 0.00 0.00 0.00 83 1016.2
20260509200105 13 45 6.4 19.3 0.00 0.00 0.00 82 1016.2
20260509194550 13 330 3.2 11.3 0.00 0.00 0.00 82 1016.1
20260509193051 13 33 4.8 17.7 0.00 0.00 0.00 81 1016.1
20260509191549 13 69 4.8 16.1 0.00 0.00 0.00 81 1016.1
20260509190048 13 67 1.6 12.9 0.00 0.00 0.00 80 1016.0
20260509184600 13 64 4.8 14.5 0.00 0.00 0.00 80 1016.0
20260509183048 13 40 4.8 16.1 0.00 0.00 0.00 78 1016.0
20260509181600 14 345 1.6 14.5 0.00 0.00 0.00 77 1015.9
20260509180046 14 59 4.8 11.3 0.00 0.00 0.00 76 1015.8
20260509174545 14 56 4.8 12.9 0.00 0.00 0.00 76 1015.8
20260509173054 15 351 4.8 11.3 0.00 0.00 0.00 76 1015.8
20260509171543 15 50 4.8 16.1 0.00 0.00 0.00 75 1015.8
20260509170042 15 38 4.8 16.1 0.00 0.00 0.00 74 1016.0
20260509164540 15 355 4.8 16.1 0.00 0.00 0.00 73 1016.3
20260509163040 16 13 6.4 16.1 0.00 0.00 0.00 72 1016.3
20260509161538 16 90 4.8 16.1 0.00 0.00 0.00 70 1016.2
20260509160043 16 55 3.2 16.1 0.00 0.00 0.00 70 1016.2
20260509154541 17 44 4.8 17.7 0.00 0.00 0.00 69 1016.1
20260509153043 17 42 6.4 20.9 0.00 0.00 0.00 70 1016.0
20260509151535 17 23 4.8 16.1 0.00 0.00 0.00 70 1016.1
20260509150039 17 40 8.0 17.7 0.00 0.00 0.00 68 1016.2
20260509144548 17 332 6.4 19.3 0.00 0.00 0.00 66 1016.1
20260509143031 18 297 3.2 14.5 0.00 0.00 0.00 66 1016.3
20260509141532 18 92 4.8 16.1 0.00 0.00 0.00 66 1016.3
20260509140028 17 49 4.8 19.3 0.00 0.00 0.00 68 1016.4
20260509134545 17 46 4.8 17.7 0.00 0.00 0.00 68 1016.5
20260509133026 18 28 4.8 14.5 0.00 0.00 0.00 69 1016.5
20260509131524 18 9 3.2 14.5 0.00 0.00 0.00 69 1016.7
20260509130025 17 53 4.8 12.9 0.00 0.00 0.00 70 1016.8
20260509124521 17 53 4.8 17.7 0.00 0.00 0.00 70 1016.9
20260509123020 17 60 6.4 16.1 0.00 0.00 0.00 71 1017.0
20260509121537 18 355 6.4 17.7 0.00 0.00 0.00 69 1017.1
20260509120017 18 24 4.8 9.7 0.00 0.00 0.00 65 1017.3
20260509114528 18 333 4.8 14.5 0.00 0.00 0.00 61 1017.3